[[{"header":{"parameterUnit":"m.s-1","parameterCategory":1,"la1":30.2991,"la2":30.254,"lo1":-89.0895,"lo2":-89.0444,"dy":0.0017,"dx":0.0017,"nx":28,"ny":28,"refTime":"2025-09-08T21:00:00:Z","depth":0,"parameterNumber":2,"parameterNumberName":"U-component_of_WINDS"},"data":[0,0,0,0,0,0,0,0,0,0,0,0,0,0,0,0,0,0,0,0,0,0,0,0,0,0,0,0,0,0,0,0,0,0,0,0,0,0,0,0,0,0,0,0,0,0,0,0,0,0,0,0,0,0,0,0,0,0,-2.7066,-2.7066,0,-2.7093,-2.7093,-2.7093,-2.698,-2.6977,-2.6974,-2.6971,-2.6998,-2.7001,-2.7005,0,0,0,0,0,0,0,0,0,0,0,0,0,-2.6916,-2.692,-2.7066,-2.7066,-2.7067,-2.7093,-2.7093,-2.7093,-2.6981,-2.6977,-2.6973,-2.6969,-2.6996,-2.7001,-2.7005,0,0,0,0,0,0,0,0,0,0,0,0,0,-2.6966,-2.6921,-2.7066,-2.7014,-2.7009,-2.7092,-2.7093,-2.7093,-2.6982,-2.6977,-2.6972,-2.6967,-2.6995,-2.7,-2.7006,-2.714,0,0,-2.7023,-2.7026,0,0,0,0,0,0,0,0,-2.6963,-2.6972,-2.7021,-2.7018,-2.7013,-2.7028,-2.705,-2.7109,-2.6983,-2.6992,-2.6971,-2.6965,-2.7012,-2.7016,-2.7032,-2.7142,-2.7143,-2.7024,-2.7027,-2.703,-2.7031,0,0,0,0,0,0,0,-2.696,-2.697,-2.7076,-2.7022,-2.7017,-2.6988,-2.699,-2.7061,-2.703,-2.6991,-2.6983,-2.6988,-2.7008,-2.7026,-2.7031,-2.7143,-2.7024,-2.7029,-2.7032,-2.7035,-2.7363,-2.7368,0,0,0,0,0,0,-2.6964,-2.6968,-2.7076,-2.7077,-2.6975,-2.6995,-2.6997,-2.7028,-2.7028,-2.7024,-2.6992,-2.6982,-2.7019,-2.7025,-2.7032,-2.7188,-2.703,-2.7035,-2.7038,-2.7358,-2.7364,-2.737,0,0,0,0,0,0,-2.6961,-2.6974,-2.7075,-2.702,-2.7031,-2.7003,-2.7039,-2.7031,-2.7049,-2.7029,-2.7023,-2.7016,-2.7015,-2.7024,-2.7114,-2.7188,-2.7038,-2.7043,-2.7352,-2.736,-2.7367,-2.7503,0,0,0,0,0,0,-2.6957,-2.6974,-2.7026,-2.7022,-2.7034,-2.7157,-2.7044,-2.7035,-2.7059,-2.7047,-2.705,-2.7046,-2.7012,-2.7106,-2.712,-2.7193,-2.7047,-2.7345,-2.7355,-2.7365,-2.7492,-2.7515,-2.7534,0,0,0,0,0,-2.6952,-2.7063,-2.7029,-2.7042,-2.7098,-2.7162,-2.7168,-2.7128,-2.7066,-2.7117,-2.7103,-2.7046,-2.7177,-2.7116,-2.7131,-2.7207,-2.734,-2.7352,-2.7364,-2.7482,-2.751,-2.7534,0,0,0,0,0,0,-2.7076,-2.7062,-2.7024,-2.7137,-2.7151,-2.7142,-2.7206,-2.7159,-2.7191,-2.7178,-2.7126,-2.7127,-2.7226,-2.7225,-2.7157,-2.7336,-2.7248,-2.7263,-2.7333,-2.7359,-2.738,-2.7378,-2.7052,0,0,0,0,0,-2.7116,-2.7169,-2.7154,-2.7255,-2.7264,-2.7234,-2.726,-2.7228,-2.724,-2.7246,-2.7239,-2.7254,-2.7298,-2.7329,-2.7368,-2.7491,-2.7489,-2.755,-2.7571,-2.7589,-2.7603,-2.7666,-2.7692,-2.7409,-2.7409,-2.7409,0,0,-2.72,-2.7199,-2.7236,-2.728,-2.7287,-2.7343,-2.724,-2.7304,-2.7344,-2.7255,-2.734,-2.7336,-2.7348,-2.7455,-2.7501,-2.7457,-2.768,-2.7604,-2.7618,-2.7622,-2.7681,-2.7708,-2.7732,-2.7417,-2.7416,-2.7415,0,0,-2.7382,-2.7387,-2.7471,-2.748,-2.7492,-2.7471,-2.7492,-2.749,-2.7483,-2.7567,-2.7501,-2.7549,-2.7627,-2.7638,-2.7654,-2.7838,-2.7786,-2.7853,-2.7963,-2.8025,-2.8048,-2.8067,-2.8132,-2.8156,-2.7866,-2.7867,-2.7867,0,-2.7484,-2.7566,-2.752,-2.7588,-2.7608,-2.753,-2.7615,-2.7626,-2.7651,-2.7667,-2.7617,-2.7712,-2.7715,-2.7822,-2.7867,-2.7883,-2.7904,-2.7852,-2.8048,-2.8067,-2.8085,-2.8146,-2.8171,-2.7875,-2.7874,-2.7873,-2.7872,0,-2.7691,-2.7749,-2.7815,-2.7841,-2.7869,-2.7945,-2.791,-2.7944,-2.7908,-2.7892,-2.7978,-2.7978,-2.8016,-2.8039,-2.8006,-2.8142,-2.8114,-2.8057,-2.7968,-2.8121,-2.8177,-2.82,-2.7886,-2.7883,-2.7881,-2.7879,0,0,-2.7952,-2.795,-2.7975,-2.7985,-2.7992,-2.8036,-2.8107,-2.8144,-2.8174,-2.8194,-2.8252,-2.8319,-2.8266,-2.8284,-2.8251,-2.8306,-2.845,-2.8241,-2.8241,-2.8279,-2.8599,-2.8641,-2.8669,-2.8415,-2.842,-2.8423,-2.8597,0,-2.8129,-2.8251,-2.8212,-2.8335,-2.8387,-2.8313,-2.8375,-2.8386,-2.8373,-2.8414,-2.8399,-2.8447,-2.8374,-2.8384,-2.8436,-2.8422,-2.8513,-2.8409,-2.8468,-2.8471,-2.8467,-2.8699,-2.8744,-2.8909,-2.8619,-2.8623,-2.8626,0,-2.8352,-2.838,-2.8509,-2.8506,-2.8526,-2.8583,-2.8613,-2.8654,-2.8664,-2.865,-2.8671,-2.8625,-2.8694,-2.8605,-2.8699,-2.8629,-2.8651,-2.8648,-2.8653,-2.8656,-2.8558,-2.8708,-2.8961,-2.8985,-2.866,-2.8658,-2.8655,0,-2.8528,-2.8598,-2.8684,-2.8695,-2.8694,-2.8735,-2.8737,-2.8742,-2.8766,-2.8792,-2.8807,-2.8841,-2.886,-2.8887,-2.8852,-2.879,-2.8951,-2.8859,-2.8941,-2.8942,-2.8978,-2.8976,-2.9237,-2.8993,-2.8993,-2.8992,-2.8992,0,-2.873,-2.8811,-2.8762,-2.8816,-2.8904,-2.8857,-2.8946,-2.8939,-2.8945,-2.8994,-2.8932,-2.898,-2.8931,-2.8974,-2.8947,-2.9028,-2.9037,-2.9027,-2.9019,-2.9033,-2.9034,-2.9046,-2.9033,-2.8999,-2.8997,-2.8996,-2.8995,0,-2.8941,-2.8912,-2.9,-2.8992,-2.8992,-2.9058,-2.905,-2.9098,-2.908,-2.9143,-2.9155,-2.9127,-2.9174,-2.9142,-2.9189,-2.9171,-2.9277,-2.9253,-2.9274,-2.9267,-2.935,-2.9343,-2.9628,-2.9662,-2.9398,-2.94,-2.9402,0,-2.9072,-2.9133,-2.913,-2.9159,-2.9164,-2.9212,-2.9236,-2.9191,-2.9219,-2.9235,-2.9281,-2.9323,-2.9354,-2.9433,-2.9416,-2.9452,-2.9428,-2.9525,-2.9433,-2.9444,-2.9428,-2.9425,-2.943,-2.9544,-2.9547,-2.9549,-2.9551,0,-2.9306,-2.9288,-2.9325,-2.9358,-2.9388,-2.9412,-2.943,-2.9457,-2.9412,-2.9446,-2.9493,-2.9518,-2.9565,-2.9608,-2.9637,-2.9637,-2.9587,-2.9581,-2.9601,-2.9616,-2.9625,-2.962,-2.9324,-2.9574,-2.9572,-2.957,-2.9569,-2.9568,-2.948,-2.953,-2.9536,-2.9579,-2.9588,-2.9606,-2.9651,-2.9638,-2.9677,-2.9712,-2.9683,-2.974,-2.9747,-2.9781,-2.9788,-2.9831,-2.9791,-2.9821,-2.9829,-2.9837,-2.9848,-2.9618,-2.9836,-2.9835,-2.9835,-2.9834,-2.9834,0,-2.971,-2.971,-2.975,-2.9777,-2.9811,-2.976,-2.9778,-2.9809,-2.986,-2.9871,-2.9902,-2.9956,-2.9997,-2.9983,-3.0018,-3.0055,-3.0033,-3.0066,-3.0063,-3.0063,-2.9882,-2.986,-3.0084,-3.0084,-3.0083,-3.0083,-3.0083,-3.0083,-2.9833,-2.9915,-2.9898,-2.9983,-2.9982,-3.0037,-3.0051,-3.0067,-3.0075,-3.0138,-3.0171,-3.0162,-3.0163,-3.0197,-3.0232,-3.0227,-3.0242,-3.0284,-3.027,-3.0101,-3.0076,-3.0053,-3.0032,-3.0288,-3.0288,-3.0448,-3.0449,-3.045]},{"header":{"parameterUnit":"m.s-1","parameterCategory":1,"la1":30.2991,"la2":30.254,"lo1":-89.0895,"lo2":-89.0444,"dy":0.0017,"dx":0.0017,"nx":28,"ny":28,"refTime":"2025-09-08T21:00:00:Z","depth":0,"parameterNumber":3,"parameterNumberName":"V-component_of_WINDS"},"data":[0,0,0,0,0,0,0,0,0,0,0,0,0,0,0,0,0,0,0,0,0,0,0,0,0,0,0,0,0,0,0,0,0,0,0,0,0,0,0,0,0,0,0,0,0,0,0,0,0,0,0,0,0,0,0,0,0,0,-2.5638,-2.5638,0,-2.5676,-2.5677,-2.5677,-2.5656,-2.5655,-2.5654,-2.5653,-2.5692,-2.5694,-2.5696,0,0,0,0,0,0,0,0,0,0,0,0,0,-2.5543,-2.5545,-2.5638,-2.5638,-2.5639,-2.5676,-2.5677,-2.5677,-2.5656,-2.5655,-2.5653,-2.5652,-2.5691,-2.5693,-2.5696,0,0,0,0,0,0,0,0,0,0,0,0,0,-2.5583,-2.5545,-2.5638,-2.5632,-2.5632,-2.5676,-2.5677,-2.5678,-2.5656,-2.5655,-2.5653,-2.5651,-2.569,-2.5693,-2.5696,-2.5747,0,0,-2.5706,-2.5707,0,0,0,0,0,0,0,0,-2.5581,-2.5587,-2.5633,-2.5633,-2.5633,-2.566,-2.5658,-2.5701,-2.5657,-2.5647,-2.5652,-2.5651,-2.5682,-2.5686,-2.5697,-2.5749,-2.5751,-2.5706,-2.5708,-2.5709,-2.571,0,0,0,0,0,0,0,-2.5578,-2.5585,-2.5653,-2.5633,-2.5633,-2.5627,-2.5631,-2.5666,-2.5673,-2.5648,-2.5646,-2.5651,-2.5682,-2.5694,-2.5697,-2.5751,-2.5706,-2.5708,-2.571,-2.5712,-2.5845,-2.5847,0,0,0,0,0,0,-2.5576,-2.5583,-2.5652,-2.5654,-2.5602,-2.563,-2.5635,-2.5653,-2.5673,-2.5674,-2.5653,-2.565,-2.5689,-2.5694,-2.5699,-2.5758,-2.5709,-2.5712,-2.5714,-2.5843,-2.5846,-2.5847,0,0,0,0,0,0,-2.5574,-2.5582,-2.565,-2.5618,-2.5626,-2.5634,-2.5654,-2.5654,-2.5666,-2.5676,-2.5677,-2.5663,-2.5688,-2.5694,-2.5735,-2.5759,-2.5713,-2.5716,-2.5841,-2.5844,-2.5846,-2.5879,0,0,0,0,0,0,-2.5571,-2.5582,-2.5602,-2.5619,-2.5628,-2.5686,-2.5655,-2.5656,-2.5671,-2.5668,-2.5687,-2.5688,-2.5687,-2.573,-2.5738,-2.5763,-2.5718,-2.5839,-2.5843,-2.5846,-2.5876,-2.5882,-2.5888,0,0,0,0,0,-2.5568,-2.561,-2.5603,-2.5611,-2.5653,-2.5688,-2.5693,-2.5692,-2.5674,-2.5693,-2.5699,-2.5688,-2.5756,-2.5735,-2.5743,-2.5769,-2.5838,-2.5842,-2.5845,-2.5873,-2.5881,-2.5888,0,0,0,0,0,0,-2.5596,-2.5612,-2.5604,-2.5653,-2.5669,-2.5684,-2.5709,-2.57,-2.5722,-2.5718,-2.5715,-2.5719,-2.5761,-2.5769,-2.5746,-2.5818,-2.5794,-2.5799,-2.5812,-2.5819,-2.5825,-2.5822,-2.5721,0,0,0,0,0,-2.5607,-2.5635,-2.5647,-2.5689,-2.5697,-2.5702,-2.5717,-2.5714,-2.5731,-2.5737,-2.5747,-2.5763,-2.5787,-2.5804,-2.5828,-2.5877,-2.5879,-2.5899,-2.5905,-2.591,-2.5914,-2.5939,-2.5947,-2.586,-2.586,-2.586,0,0,-2.5632,-2.5644,-2.5662,-2.5694,-2.5707,-2.5734,-2.5708,-2.5738,-2.5758,-2.5742,-2.578,-2.5788,-2.5805,-2.585,-2.587,-2.5858,-2.5939,-2.5915,-2.5918,-2.5921,-2.5944,-2.5952,-2.596,-2.5863,-2.5862,-2.5862,0,0,-2.5691,-2.5703,-2.5738,-2.5751,-2.5769,-2.5772,-2.578,-2.5796,-2.58,-2.5839,-2.5827,-2.585,-2.5893,-2.5906,-2.5918,-2.5979,-2.5969,-2.5987,-2.6019,-2.6043,-2.605,-2.6056,-2.6076,-2.6084,-2.5992,-2.5992,-2.5992,0,-2.5719,-2.576,-2.5758,-2.5789,-2.5803,-2.5789,-2.5823,-2.5836,-2.5861,-2.587,-2.5857,-2.5909,-2.592,-2.5967,-2.5981,-2.5992,-2.6001,-2.5985,-2.6049,-2.6055,-2.6061,-2.608,-2.6088,-2.5994,-2.5994,-2.5993,-2.5993,0,-2.5793,-2.5822,-2.5848,-2.5872,-2.5889,-2.5922,-2.5923,-2.5941,-2.5936,-2.5939,-2.5978,-2.599,-2.6015,-2.6026,-2.6022,-2.6072,-2.6063,-2.6049,-2.6024,-2.6071,-2.6089,-2.6097,-2.5997,-2.5996,-2.5995,-2.5995,0,0,-2.5872,-2.5893,-2.5902,-2.5912,-2.5931,-2.5952,-2.5984,-2.6008,-2.6022,-2.604,-2.6065,-2.6101,-2.6088,-2.6101,-2.6098,-2.612,-2.6166,-2.6103,-2.6103,-2.6113,-2.6219,-2.6229,-2.6238,-2.6159,-2.616,-2.6161,-2.6217,0,-2.593,-2.5986,-2.5983,-2.6034,-2.606,-2.6046,-2.6073,-2.6087,-2.6091,-2.6112,-2.6116,-2.6141,-2.6122,-2.613,-2.6151,-2.6156,-2.6187,-2.6152,-2.6181,-2.6183,-2.6177,-2.6247,-2.6258,-2.6311,-2.6224,-2.6226,-2.6226,0,-2.6007,-2.6026,-2.608,-2.6093,-2.6103,-2.6128,-2.6149,-2.617,-2.6185,-2.6186,-2.62,-2.6193,-2.6224,-2.6198,-2.6239,-2.6216,-2.6227,-2.6232,-2.6234,-2.6236,-2.6207,-2.6251,-2.6327,-2.6335,-2.6238,-2.6237,-2.6236,0,-2.6057,-2.6096,-2.6133,-2.6142,-2.6159,-2.6176,-2.6184,-2.6197,-2.6211,-2.6229,-2.6238,-2.6259,-2.6271,-2.6287,-2.6286,-2.6268,-2.6328,-2.6302,-2.6328,-2.6329,-2.6342,-2.6341,-2.642,-2.6351,-2.635,-2.635,-2.635,0,-2.6123,-2.6156,-2.6156,-2.6178,-2.6214,-2.621,-2.6246,-2.6252,-2.6263,-2.6286,-2.6275,-2.6296,-2.6294,-2.6315,-2.6314,-2.6347,-2.6353,-2.6354,-2.6353,-2.6355,-2.6355,-2.6362,-2.6358,-2.6352,-2.6352,-2.6351,-2.6351,0,-2.6185,-2.6186,-2.6225,-2.6237,-2.6241,-2.6266,-2.6276,-2.6297,-2.6299,-2.6328,-2.6334,-2.6338,-2.6362,-2.6362,-2.6391,-2.639,-2.643,-2.6426,-2.6425,-2.6424,-2.645,-2.6447,-2.6537,-2.6548,-2.6472,-2.6473,-2.6473,0,-2.6226,-2.6251,-2.6265,-2.628,-2.6288,-2.6312,-2.6325,-2.6322,-2.6337,-2.6355,-2.6373,-2.6396,-2.6414,-2.6453,-2.6458,-2.6479,-2.6474,-2.6504,-2.6478,-2.6478,-2.6474,-2.6472,-2.6474,-2.6509,-2.651,-2.6511,-2.6512,0,-2.63,-2.6298,-2.6319,-2.634,-2.6356,-2.6372,-2.6387,-2.6399,-2.6398,-2.6415,-2.6439,-2.6453,-2.6481,-2.6503,-2.6523,-2.653,-2.652,-2.652,-2.6527,-2.6528,-2.6527,-2.6527,-2.6439,-2.6518,-2.6517,-2.6517,-2.6516,-2.6516,-2.6352,-2.6373,-2.6385,-2.6408,-2.6419,-2.6432,-2.6452,-2.6456,-2.6476,-2.6499,-2.6495,-2.6522,-2.6534,-2.656,-2.6569,-2.6589,-2.6578,-2.6589,-2.6591,-2.6594,-2.6596,-2.6524,-2.6593,-2.6592,-2.6592,-2.6592,-2.6592,0,-2.6423,-2.6431,-2.6452,-2.6472,-2.649,-2.6479,-2.6494,-2.6509,-2.6533,-2.6545,-2.6563,-2.659,-2.6611,-2.6617,-2.6638,-2.6653,-2.6649,-2.6658,-2.6657,-2.6658,-2.6605,-2.6596,-2.6661,-2.6661,-2.6661,-2.6661,-2.6661,-2.6661,-2.6463,-2.6497,-2.6497,-2.6536,-2.6542,-2.6568,-2.6578,-2.659,-2.6599,-2.663,-2.6648,-2.6651,-2.6661,-2.6681,-2.67,-2.6701,-2.6709,-2.672,-2.6719,-2.6669,-2.6662,-2.6656,-2.6647,-2.6722,-2.6722,-2.6771,-2.6771,-2.6771]}]]